Location: Chrome
(40.5765°N, 74.2163°W)
Time: 00:02:47
(UTC+00:00)

FengYun 1-2 T - Pass Details

Date: 06 December 2019
Orbit: 847 x 880 km, 98.7° (Epoch: 19 January)

Event Time Altitude Azimuth Distance (km) Brightness Sun altitude
Rises 22:43:49 0° 152° (SSE) 3,397 7.2 -13.7°
Reaches altitude 10° 22:46:13 10° 148° (SSE) 2,464 6.5 -14.1°
Maximum altitude 22:51:32 56° 71° (ENE) 1,008 4.2 -15.1°
Drops below altitude 10° 22:56:53 10° 355° (N) 2,483 6.5 -16.1°
Sets 22:59:18 0° 352° (N) 3,425 7.3 -16.5°
